Find Starlink 31029

NORAD ID: 58712 Int'l Des: 2024-002 Owner: SPXS Country: US Constellation: starlink operational
LEOCIRCULAR

現在のビュー

3D地球を読み込み中...

About Starlink 31029

Starlink 31029 (NORAD 58712) is a starlink constellation satellite (v2 mini) launched Jan 3, 2024 by SPXS of US. It operates in LEO, CIRCULAR orbit with a mass of 730.00 kg.

Starlink 31029について

説明を読み込み中...

次回通過

Passes for default location (London). Set your location on the main map for personalized predictions.

高度履歴

Loading altitude history...

軌道要素

1 58712U 24002H 26167.15738685 .00000088 00000-0 15118-4 0 9992
2 58712 53.1595 132.3885 0001392 97.2976 262.8183 15.30185034137098
Epoch: Jun 16, 2026 • Age: 8 hours

現在のステータス

高度 478.3 km
速度 7.63 km/s
衛星直下点 -9.72°S, 45.36°E
打ち上げ日 Jan 3, 2024
運用期間 2.4 years
タイプ internet

技術仕様

分類 Payload
質量 730.00 kg
乾燥質量 700.00 kg
総質量 730.00 kg
長さ 0.30 m
直径 4.10 m
スパン 29.00 m
形状 Box + pan
製造者 SPXS
バスタイプ Starlink V2M
フェーズステータス In Orbit
所有者/国 SPXS/US

Most Searched